Location: Ebenezer
(18.2167°N, 63.0667°W)
Time: 11:17:55
(UTC+00:00)

Cosmos 1076 Rocket - Pass Details

Date: 26 January 2020
Orbit: 590 x 612 km, 82.5° (Epoch: 20 February)

Event Time Altitude Azimuth Distance (km) Brightness Sun altitude
Rises 22:36:08 0° 163° (SSE) 2,822 7.0 -8.3°
Reaches altitude 10° 22:38:32 10° 153° (SSE) 1,926 6.0 -8.9°
Maximum altitude 22:42:15 30° 91° (E) 1,086 4.3 -9.7°
Drops below altitude 10° 22:46:00 10° 31° (NNE) 1,943 5.7 -10.6°
Enters shadow 22:47:59 - 21° (NNE) 2,681 6.5 -11.0°
